Location: Boiro
(42.6475°N, 8.8834°W)
Time: 08:46:31
(UTC+02:00)

Transit 4A - Visible Passes

Search period start: 28 September 2022 00:00
Search period end: 08 October 2022 00:00
Orbit: 869 x 975 km, 66.8° (Epoch: 27 September)

Date Brightness Start Highest point End Pass type
(mag) Time Alt. Az. Time Alt. Az. Time Alt. Az.
28 Sep 10.6 03:14:25 12° N 03:14:25 12° N 03:14:53 10° NNE visible
29 Sep 10.6 03:23:24 12° N 03:23:24 12° N 03:23:49 10° N visible
30 Sep 10.6 03:32:23 11° N 03:32:23 11° N 03:32:38 10° N visible
01 Oct 10.6 07:17:42 10° NNE 07:17:59 10° NNE 07:18:14 10° NNE visible
02 Oct 10.4 07:25:07 10° N 07:27:47 13° NNE 07:30:25 10° ENE visible
03 Oct 10.2 07:33:44 10° N 07:37:30 17° NE 07:41:14 10° ENE visible
04 Oct 10.0 07:42:35 10° N 07:47:09 23° NE 07:51:39 10° E visible
05 Oct 9.6 07:51:32 10° NNW 07:56:41 31° NE 08:01:46 10° ESE visible
06 Oct 10.5 06:16:33 10° NNE 06:18:05 11° NNE 06:19:37 10° NE visible
06 Oct 9.1 08:00:34 10° NNW 08:06:08 42° NE 08:11:37 10° ESE visible
07 Oct 10.4 06:24:47 10° N 06:27:52 14° NNE 06:30:56 10° ENE visible
07 Oct 8.4 08:09:41 10° NNW 08:15:29 61° NE 08:21:13 10° SE visible
